Regional Weather Roundup
Issued by NWS

Home | Current Version | Previous Version | Graphics & Text | Print | Product List | Glossary On
Versions: 1 2 3 4 5 6 7 8 9 10 11 12 13 14 15 16 17 18 19 20 21 22 23 24 25 26 27 28 29 30 31 32 33 34 35 36 37 38 39 40 41 42 43 44 45 46 47 48 49 50
201
ASUS43 KLMK 300810
RWRKY
KENTUCKY REGIONAL WEATHER ROUNDUP
NATIONAL WEATHER SERVICE LOUISVILLE KY
400 AM EDT SAT APR 30 2016

NOTE "FAIR" INDICATES FEW OR NO CLOUDS BELOW 12,000 FEET
WITH NO SIGNIFICANT WEATHER AND/OR OBSTRUCTIONS TO VISIBILITY.

KYZ001>023-026-027-061>063-070>075-300900-
WESTERN AND SOUTH CENTRAL KENTUCKY

CITY           SKY/WX    TMP DP  RH WIND       PRES   REMARKS
PADUCAH        CLOUDY    61  58  90 SE3       29.89S
HENDERSON      CLOUDY    61  52  72 SE5       29.90F
OWENSBORO      CLOUDY    62  55  77 E9        29.92F
HOPKINSVILLE   CLOUDY    62  59  89 E6        29.90F
BOWLING GREEN  CLOUDY    63  56  78 NE6       29.93S
GLASGOW        CLOUDY    63  52  67 NE5       29.93S
$$

KYZ024-025-028>034-038-045-046-053-300900-
NORTH CENTRAL KENTUCKY

CITY           SKY/WX    TMP DP  RH WIND       PRES   REMARKS
LOUISVILLE/SDF LGT RAIN  61  52  72 E9        29.96F
LOUISVILLE/LOU LGT RAIN  61  52  72 E9        29.97F
FORT KNOX      CLOUDY    59  53  80 E9        29.94F
$$

KYZ035>037-039>044-047>052-055>060-089>105-300900-
NORTHEAST KENTUCKY

CITY           SKY/WX    TMP DP  RH WIND       PRES   REMARKS
LEXINGTON      LGT RAIN  59  53  80 E12       30.00F
COVINGTON      CLOUDY    54  48  80 E15       30.02F
FRANKFORT      CLOUDY    59  51  75 NE9       29.99F
$$

KYZ054-064>069-076>088-106>120-300900-
SOUTHEAST KENTUCKY

CITY           SKY/WX    TMP DP  RH WIND       PRES   REMARKS
JACKSON        CLOUDY    58  51  78 CALM      30.01F
LONDON         CLOUDY    62  50  64 NE5       29.98F
SOMERSET       CLOUDY    61  50  67 CALM      29.98S
MIDDLESBORO    CLOUDY    59  55  87 CALM      29.99S
MONTICELLO     CLOUDY    60  54  80 NW6       29.97F
$$





USA.gov is the U.S. government's official web portal to all federal, state and local government web resources and services.